Wetterdaten: Dienstag, 03.02.2015
Datum Zeit Temp. A. Feuchte A. Luftdruck Regen Wind Richtung Richtung Sonnenschein ET UV Solar Taupunkt Windchill Windben Empfang
03.02.2015 00:00 -1,5 C 80 % 1001,1 hPa 0,0 l/m 0,0 km/h (0 Bft) SW 214 0 min 0,000 mm 0,0 UV-I 0 W/m -4,5 C -1,5 C 0,0 km/h (0 Bft) 0,00 %
03.02.2015 00:15 -1,3 C 80 % 1001,3 hPa 0,0 l/m 0,0 km/h (0 Bft) S-SW 207 0 min 0,000 mm 0,0 UV-I 0 W/m -4,3 C -1,3 C 0,0 km/h (0 Bft) 0,00 %
03.02.2015 00:30 -1,5 C 80 % 1001,0 hPa 0,0 l/m 0,4 km/h (0 Bft) O 88 0 min 0,000 mm 0,0 UV-I 0 W/m -4,5 C -1,5 C 4,0 km/h (1 Bft) 0,00 %
03.02.2015 00:45 -1,5 C 80 % 1001,3 hPa 0,0 l/m 0,0 km/h (0 Bft) SW 215 0 min 0,000 mm 0,0 UV-I 0 W/m -4,5 C -1,5 C 0,0 km/h (0 Bft) 0,00 %
03.02.2015 01:00 -1,9 C 81 % 1001,5 hPa 0,0 l/m 0,0 km/h (0 Bft) O-NO 72 0 min 0,000 mm 0,0 UV-I 0 W/m -4,7 C -1,9 C 0,0 km/h (0 Bft) 0,00 %
03.02.2015 01:15 -2,2 C 79 % 1001,6 hPa 0,0 l/m 0,0 km/h (0 Bft) W-NW 293 0 min 0,000 mm 0,0 UV-I 0 W/m -5,3 C -2,2 C 0,0 km/h (0 Bft) 0,00 %
03.02.2015 01:30 -2,3 C 79 % 1001,8 hPa 0,0 l/m 0,0 km/h (0 Bft) O-SO 107 0 min 0,000 mm 0,0 UV-I 0 W/m -5,4 C -2,3 C 0,0 km/h (0 Bft) 0,00 %
03.02.2015 01:45 -2,1 C 79 % 1002,0 hPa 0,0 l/m 0,0 km/h (0 Bft) SW 217 0 min 0,000 mm 0,0 UV-I 0 W/m -5,2 C -2,1 C 0,0 km/h (0 Bft) 0,00 %
03.02.2015 02:00 -2,0 C 78 % 1002,1 hPa 0,0 l/m 0,0 km/h (0 Bft) S 191 0 min 0,000 mm 0,0 UV-I 0 W/m -5,3 C -2,0 C 0,0 km/h (0 Bft) 0,00 %
03.02.2015 02:15 -1,9 C 77 % 1002,1 hPa 0,0 l/m 0,4 km/h (0 Bft) W-SW 250 0 min 0,000 mm 0,0 UV-I 0 W/m -5,4 C -1,9 C 4,0 km/h (1 Bft) 0,00 %
03.02.2015 02:30 -1,8 C 77 % 1002,2 hPa 0,0 l/m 0,0 km/h (0 Bft) SW 216 0 min 0,000 mm 0,0 UV-I 0 W/m -5,3 C -1,8 C 0,0 km/h (0 Bft) 0,00 %
03.02.2015 02:45 -1,8 C 77 % 1002,2 hPa 0,0 l/m 0,0 km/h (0 Bft) S-SW 209 0 min 0,000 mm 0,0 UV-I 0 W/m -5,3 C -1,8 C 0,0 km/h (0 Bft) 0,00 %
03.02.2015 03:00 -1,7 C 76 % 1002,3 hPa 0,0 l/m 0,0 km/h (0 Bft) W-NW 290 0 min 0,000 mm 0,0 UV-I 0 W/m -5,4 C -1,7 C 0,0 km/h (0 Bft) 0,00 %
03.02.2015 03:15 -1,5 C 75 % 1002,1 hPa 0,0 l/m 0,0 km/h (0 Bft) W-SW 250 0 min 0,000 mm 0,0 UV-I 0 W/m -5,3 C -1,5 C 0,0 km/h (0 Bft) 0,00 %
03.02.2015 03:30 -1,8 C 75 % 1002,3 hPa 0,0 l/m 0,0 km/h (0 Bft) S-SW 194 0 min 0,000 mm 0,0 UV-I 0 W/m -5,6 C -1,8 C 0,0 km/h (0 Bft) 0,00 %
03.02.2015 03:45 -2,3 C 71 % 1002,4 hPa 0,0 l/m 0,7 km/h (0 Bft) W-SW 256 0 min 0,000 mm 0,0 UV-I 0 W/m -6,8 C -2,3 C 4,0 km/h (1 Bft) 0,00 %
03.02.2015 04:00 -3,2 C 71 % 1002,4 hPa 0,0 l/m 0,0 km/h (0 Bft) S-SW 210 0 min 0,000 mm 0,0 UV-I 0 W/m -7,7 C -3,2 C 0,0 km/h (0 Bft) 0,00 %
03.02.2015 04:15 -3,9 C 73 % 1002,6 hPa 0,0 l/m 0,0 km/h (0 Bft) S 179 0 min 0,000 mm 0,0 UV-I 0 W/m -8,0 C -3,9 C 0,0 km/h (0 Bft) 0,00 %
03.02.2015 04:30 -4,3 C 74 % 1002,6 hPa 0,0 l/m 0,0 km/h (0 Bft) S-SW 210 0 min 0,000 mm 0,0 UV-I 0 W/m -8,2 C -4,3 C 0,0 km/h (0 Bft) 0,00 %
03.02.2015 04:45 -4,1 C 75 % 1002,7 hPa 0,0 l/m 0,0 km/h (0 Bft) S 176 0 min 0,000 mm 0,0 UV-I 0 W/m -7,9 C -4,1 C 0,0 km/h (0 Bft) 0,00 %
03.02.2015 05:00 -4,1 C 74 % 1002,6 hPa 0,0 l/m 0,0 km/h (0 Bft) S 184 0 min 0,000 mm 0,0 UV-I 0 W/m -8,0 C -4,1 C 0,0 km/h (0 Bft) 0,00 %
03.02.2015 05:15 -4,3 C 74 % 1002,8 hPa 0,0 l/m 0,0 km/h (0 Bft) S-SW 210 0 min 0,000 mm 0,0 UV-I 0 W/m -8,2 C -4,3 C 0,0 km/h (0 Bft) 0,00 %
03.02.2015 05:30 -4,7 C 75 % 1002,8 hPa 0,0 l/m 0,0 km/h (0 Bft) SO 129 0 min 0,000 mm 0,0 UV-I 0 W/m -8,4 C -4,7 C 0,0 km/h (0 Bft) 0,00 %
03.02.2015 05:45 -4,7 C 75 % 1002,8 hPa 0,0 l/m 0,0 km/h (0 Bft) S 191 0 min 0,000 mm 0,0 UV-I 0 W/m -8,4 C -4,7 C 0,0 km/h (0 Bft) 0,00 %
03.02.2015 06:00 -4,5 C 74 % 1002,7 hPa 0,0 l/m 0,0 km/h (0 Bft) S 186 0 min 0,000 mm 0,0 UV-I 0 W/m -8,4 C -4,5 C 0,0 km/h (0 Bft) 0,00 %
03.02.2015 06:15 -4,7 C 74 % 1002,8 hPa 0,0 l/m 0,0 km/h (0 Bft) S 190 0 min 0,000 mm 0,0 UV-I 0 W/m -8,6 C -4,7 C 0,0 km/h (0 Bft) 0,00 %
03.02.2015 06:30 -5,2 C 74 % 1002,9 hPa 0,0 l/m 0,0 km/h (0 Bft) SW 216 0 min 0,000 mm 0,0 UV-I 0 W/m -9,1 C -5,2 C 0,0 km/h (0 Bft) 0,00 %
03.02.2015 06:45 -5,6 C 77 % 1002,9 hPa 0,0 l/m 0,0 km/h (0 Bft) S-SW 192 0 min 0,000 mm 0,0 UV-I 0 W/m -9,0 C -5,6 C 0,0 km/h (0 Bft) 0,00 %
03.02.2015 07:00 -5,9 C 77 % 1002,9 hPa 0,0 l/m 0,0 km/h (0 Bft) S 186 0 min 0,000 mm 0,0 UV-I 0 W/m -9,3 C -5,9 C 0,0 km/h (0 Bft) 0,00 %
03.02.2015 07:15 -5,8 C 77 % 1003,3 hPa 0,0 l/m 0,0 km/h (0 Bft) S-SW 211 0 min 0,000 mm 0,0 UV-I 0 W/m -9,2 C -5,8 C 0,0 km/h (0 Bft) 0,00 %
03.02.2015 07:30 -6,0 C 78 % 1003,1 hPa 0,0 l/m 0,0 km/h (0 Bft) S-SW 195 0 min 0,000 mm 0,0 UV-I 0 W/m -9,2 C -6,0 C 0,0 km/h (0 Bft) 0,00 %
03.02.2015 07:45 -6,1 C 78 % 1003,3 hPa 0,0 l/m 0,0 km/h (0 Bft) S 182 0 min 0,000 mm 0,0 UV-I 12 W/m -9,3 C -6,1 C 0,0 km/h (0 Bft) 0,00 %
03.02.2015 08:00 -5,9 C 78 % 1003,4 hPa 0,0 l/m 0,0 km/h (0 Bft) S-SW 204 15 min 0,000 mm 0,0 UV-I 57 W/m -9,1 C -5,9 C 0,0 km/h (0 Bft) 0,00 %
03.02.2015 08:15 -5,1 C 76 % 1003,3 hPa 0,0 l/m 0,0 km/h (0 Bft) S-SW 199 15 min 0,000 mm 1,0 UV-I 104 W/m -8,7 C -5,1 C 0,0 km/h (0 Bft) 0,00 %
03.02.2015 08:30 -4,1 C 71 % 1003,2 hPa 0,0 l/m 0,0 km/h (0 Bft) S-SW 198 15 min 0,000 mm 1,0 UV-I 166 W/m -8,6 C -4,1 C 0,0 km/h (0 Bft) 0,00 %
03.02.2015 08:45 -3,5 C 66 % 1003,1 hPa 0,0 l/m 0,0 km/h (0 Bft) S-SW 208 15 min 0,000 mm 1,0 UV-I 178 W/m -8,9 C -3,5 C 0,0 km/h (0 Bft) 0,00 %
03.02.2015 09:00 -2,2 C 66 % 1002,9 hPa 0,0 l/m 0,0 km/h (0 Bft) S-SW 208 15 min 0,000 mm 1,0 UV-I 190 W/m -7,7 C -2,2 C 0,0 km/h (0 Bft) 0,00 %
03.02.2015 09:15 -0,4 C 57 % 1002,6 hPa 0,0 l/m 0,0 km/h (0 Bft) S-SW 206 15 min 0,000 mm 1,0 UV-I 180 W/m -7,9 C -0,4 C 0,0 km/h (0 Bft) 0,00 %
03.02.2015 09:30 -0,2 C 55 % 1002,5 hPa 0,0 l/m 0,0 km/h (0 Bft) S-SW 207 15 min 0,000 mm 2,0 UV-I 200 W/m -8,1 C -0,2 C 0,0 km/h (0 Bft) 0,00 %
03.02.2015 09:45 0,9 C 51 % 1002,2 hPa 0,0 l/m 0,0 km/h (0 Bft) SW 215 15 min 0,000 mm 2,0 UV-I 226 W/m -8,1 C 0,9 C 0,0 km/h (0 Bft) 0,00 %
03.02.2015 10:00 1,2 C 50 % 1002,3 hPa 0,0 l/m 0,0 km/h (0 Bft) S-SW 213 15 min 0,000 mm 2,0 UV-I 297 W/m -8,0 C 1,2 C 0,0 km/h (0 Bft) 0,00 %
03.02.2015 10:15 1,4 C 51 % 1002,3 hPa 0,0 l/m 0,0 km/h (0 Bft) SW 219 15 min 0,000 mm 2,0 UV-I 280 W/m -7,6 C 1,4 C 0,0 km/h (0 Bft) 0,00 %
03.02.2015 10:30 -0,3 C 59 % 1002,3 hPa 0,0 l/m 0,0 km/h (0 Bft) N-NO 29 15 min 0,000 mm 2,0 UV-I 311 W/m -7,3 C -0,3 C 0,0 km/h (0 Bft) 0,00 %
03.02.2015 10:45 -0,4 C 59 % 1002,7 hPa 0,0 l/m 0,0 km/h (0 Bft) SO 136 15 min 0,000 mm 2,0 UV-I 336 W/m -7,4 C -0,4 C 0,0 km/h (0 Bft) 0,00 %
03.02.2015 11:00 -0,3 C 60 % 1002,7 hPa 0,0 l/m 0,0 km/h (0 Bft) SO 132 15 min 0,000 mm 2,0 UV-I 368 W/m -7,1 C -0,3 C 0,0 km/h (0 Bft) 0,00 %
03.02.2015 11:15 -0,3 C 60 % 1002,8 hPa 0,0 l/m 0,0 km/h (0 Bft) SO 145 15 min 0,000 mm 2,0 UV-I 383 W/m -7,1 C -0,3 C 0,0 km/h (0 Bft) 0,00 %
03.02.2015 11:30 -0,3 C 57 % 1002,4 hPa 0,0 l/m 0,0 km/h (0 Bft) SO 130 15 min 0,000 mm 2,0 UV-I 394 W/m -7,8 C -0,3 C 0,0 km/h (0 Bft) 0,00 %
03.02.2015 11:45 -0,2 C 57 % 1002,2 hPa 0,0 l/m 0,0 km/h (0 Bft) S 181 15 min 0,000 mm 2,0 UV-I 402 W/m -7,7 C -0,2 C 0,0 km/h (0 Bft) 0,00 %
03.02.2015 12:00 0,1 C 57 % 1002,4 hPa 0,0 l/m 0,0 km/h (0 Bft) O-SO 105 15 min 0,000 mm 2,0 UV-I 399 W/m -7,4 C 0,1 C 0,0 km/h (0 Bft) 0,00 %
03.02.2015 12:15 0,1 C 56 % 1002,2 hPa 0,0 l/m 0,0 km/h (0 Bft) S 174 15 min 0,000 mm 2,0 UV-I 389 W/m -7,6 C 0,1 C 0,0 km/h (0 Bft) 0,00 %
03.02.2015 12:30 -0,1 C 57 % 1002,1 hPa 0,3 l/m 0,0 km/h (0 Bft) S-SO 153 15 min 0,000 mm 2,0 UV-I 389 W/m -7,6 C -0,1 C 0,0 km/h (0 Bft) 0,00 %
03.02.2015 12:45 0,0 C 56 % 1002,0 hPa 0,0 l/m 0,0 km/h (0 Bft) O-SO 106 15 min 0,000 mm 2,0 UV-I 383 W/m -7,7 C 0,0 C 0,0 km/h (0 Bft) 0,00 %
03.02.2015 13:00 0,0 C 56 % 1002,0 hPa 0,0 l/m 0,0 km/h (0 Bft) S 178 15 min 0,000 mm 2,0 UV-I 361 W/m -7,7 C 0,0 C 0,0 km/h (0 Bft) 0,00 %
03.02.2015 13:15 0,2 C 55 % 1001,8 hPa 0,0 l/m 0,0 km/h (0 Bft) O 95 15 min 0,000 mm 2,0 UV-I 350 W/m -7,8 C 0,2 C 0,0 km/h (0 Bft) 0,00 %
03.02.2015 13:30 0,3 C 55 % 1002,0 hPa 0,0 l/m 0,7 km/h (0 Bft) O-SO 111 15 min 0,000 mm 2,0 UV-I 310 W/m -7,7 C 0,3 C 4,0 km/h (1 Bft) 0,00 %
03.02.2015 13:45 0,3 C 54 % 1001,9 hPa 0,0 l/m 0,0 km/h (0 Bft) O-SO 111 15 min 0,000 mm 2,0 UV-I 256 W/m -7,9 C 0,3 C 0,0 km/h (0 Bft) 0,00 %
03.02.2015 14:00 0,1 C 53 % 1001,7 hPa 0,0 l/m 0,4 km/h (0 Bft) S-SO 148 15 min 0,000 mm 2,0 UV-I 420 W/m -8,3 C 0,1 C 4,0 km/h (1 Bft) 0,00 %
03.02.2015 14:15 0,1 C 53 % 1001,9 hPa 0,0 l/m 0,4 km/h (0 Bft) S-SO 155 0 min 0,000 mm 2,0 UV-I 176 W/m -8,3 C 0,1 C 4,0 km/h (1 Bft) 0,00 %
03.02.2015 14:30 0,3 C 54 % 1001,7 hPa 0,0 l/m 0,0 km/h (0 Bft) S 180 0 min 0,000 mm 1,0 UV-I 133 W/m -7,9 C 0,3 C 0,0 km/h (0 Bft) 0,00 %
03.02.2015 14:45 0,1 C 54 % 1001,9 hPa 0,0 l/m 0,0 km/h (0 Bft) SO 131 15 min 0,000 mm 1,0 UV-I 170 W/m -8,1 C 0,1 C 0,0 km/h (0 Bft) 0,00 %
03.02.2015 15:00 0,0 C 54 % 1001,8 hPa 0,0 l/m 1,8 km/h (1 Bft) O 83 0 min 0,000 mm 1,0 UV-I 111 W/m -8,2 C 0,0 C 4,0 km/h (1 Bft) 0,00 %
03.02.2015 15:15 0,1 C 54 % 1001,7 hPa 0,0 l/m 0,0 km/h (0 Bft) O-SO 104 0 min 0,000 mm 1,0 UV-I 59 W/m -8,1 C 0,1 C 0,0 km/h (0 Bft) 0,00 %
03.02.2015 15:30 0,0 C 54 % 1001,9 hPa 0,0 l/m 0,0 km/h (0 Bft) O-SO 116 0 min 0,000 mm 1,0 UV-I 78 W/m -8,2 C 0,0 C 0,0 km/h (0 Bft) 0,00 %
03.02.2015 15:45 -0,3 C 54 % 1001,7 hPa 0,0 l/m 0,0 km/h (0 Bft) S 175 0 min 0,000 mm 1,0 UV-I 100 W/m -8,5 C -0,3 C 0,0 km/h (0 Bft) 0,00 %
03.02.2015 16:00 -0,4 C 55 % 1001,8 hPa 0,0 l/m 0,0 km/h (0 Bft) O-SO 122 15 min 0,000 mm 1,0 UV-I 141 W/m -8,3 C -0,4 C 0,0 km/h (0 Bft) 0,00 %
03.02.2015 16:15 -0,5 C 57 % 1001,6 hPa 0,0 l/m 0,0 km/h (0 Bft) S-SW 196 15 min 0,000 mm 0,0 UV-I 71 W/m -7,9 C -0,5 C 0,0 km/h (0 Bft) 0,00 %
03.02.2015 16:30 -1,0 C 59 % 1001,8 hPa 0,0 l/m 0,0 km/h (0 Bft) S 180 0 min 0,000 mm 0,0 UV-I 15 W/m -8,0 C -1,0 C 0,0 km/h (0 Bft) 0,00 %
03.02.2015 16:45 -1,8 C 64 % 1002,2 hPa 0,0 l/m 0,0 km/h (0 Bft) S-SW 193 0 min 0,000 mm 0,0 UV-I 0 W/m -7,7 C -1,8 C 0,0 km/h (0 Bft) 0,00 %
03.02.2015 17:00 -2,5 C 60 % 1002,3 hPa 0,0 l/m 0,0 km/h (0 Bft) S 185 0 min 0,000 mm 0,0 UV-I 0 W/m -9,2 C -2,5 C 0,0 km/h (0 Bft) 0,00 %
03.02.2015 17:15 -3,0 C 64 % 1002,3 hPa 0,0 l/m 0,0 km/h (0 Bft) SW 214 0 min 0,000 mm 0,0 UV-I 0 W/m -8,8 C -3,0 C 0,0 km/h (0 Bft) 0,00 %
03.02.2015 17:30 -3,4 C 65 % 1002,6 hPa 0,0 l/m 0,0 km/h (0 Bft) SW 214 0 min 0,000 mm 0,0 UV-I 0 W/m -9,0 C -3,4 C 0,0 km/h (0 Bft) 0,00 %
03.02.2015 17:45 -4,0 C 69 % 1002,8 hPa 0,0 l/m 0,0 km/h (0 Bft) S 178 0 min 0,000 mm 0,0 UV-I 0 W/m -8,8 C -4,0 C 0,0 km/h (0 Bft) 0,00 %
03.02.2015 18:00 -4,2 C 69 % 1002,8 hPa 0,0 l/m 0,0 km/h (0 Bft) S 179 0 min 0,000 mm 0,0 UV-I 0 W/m -9,0 C -4,2 C 0,0 km/h (0 Bft) 0,00 %
03.02.2015 18:15 -4,2 C 69 % 1002,9 hPa 0,0 l/m 0,0 km/h (0 Bft) S-SW 209 0 min 0,000 mm 0,0 UV-I 0 W/m -9,0 C -4,2 C 0,0 km/h (0 Bft) 0,00 %
03.02.2015 18:30 -4,7 C 71 % 1003,3 hPa 0,0 l/m 0,0 km/h (0 Bft) S-SW 198 0 min 0,000 mm 0,0 UV-I 0 W/m -9,1 C -4,7 C 0,0 km/h (0 Bft) 0,00 %
03.02.2015 18:45 -5,4 C 73 % 1003,5 hPa 0,0 l/m 0,0 km/h (0 Bft) W-SW 238 0 min 0,000 mm 0,0 UV-I 0 W/m -9,5 C -5,4 C 0,0 km/h (0 Bft) 0,00 %
03.02.2015 19:00 -5,7 C 73 % 1003,6 hPa 0,0 l/m 0,0 km/h (0 Bft) S 181 0 min 0,000 mm 0,0 UV-I 0 W/m -9,7 C -5,7 C 0,0 km/h (0 Bft) 0,00 %
03.02.2015 19:15 -4,9 C 72 % 1003,6 hPa 0,0 l/m 0,0 km/h (0 Bft) S-SW 198 0 min 0,000 mm 0,0 UV-I 0 W/m -9,1 C -4,9 C 0,0 km/h (0 Bft) 0,00 %
03.02.2015 19:30 -4,6 C 71 % 1003,5 hPa 0,0 l/m 0,0 km/h (0 Bft) S 186 0 min 0,000 mm 0,0 UV-I 0 W/m -9,0 C -4,6 C 0,0 km/h (0 Bft) 0,00 %
03.02.2015 19:45 -5,4 C 72 % 1003,8 hPa 0,0 l/m 0,0 km/h (0 Bft) S 181 0 min 0,000 mm 0,0 UV-I 0 W/m -9,6 C -5,4 C 0,0 km/h (0 Bft) 0,00 %
03.02.2015 20:00 -5,4 C 72 % 1003,8 hPa 0,0 l/m 0,0 km/h (0 Bft) S 191 0 min 0,000 mm 0,0 UV-I 0 W/m -9,6 C -5,4 C 0,0 km/h (0 Bft) 0,00 %
03.02.2015 20:15 -5,4 C 73 % 1004,0 hPa 0,0 l/m 0,0 km/h (0 Bft) S 184 0 min 0,000 mm 0,0 UV-I 0 W/m -9,5 C -5,4 C 0,0 km/h (0 Bft) 0,00 %
03.02.2015 20:30 -5,9 C 73 % 1003,8 hPa 0,0 l/m 0,0 km/h (0 Bft) S-SW 210 0 min 0,000 mm 0,0 UV-I 0 W/m -9,9 C -5,9 C 0,0 km/h (0 Bft) 0,00 %
03.02.2015 20:45 -6,2 C 74 % 1003,9 hPa 0,0 l/m 0,0 km/h (0 Bft) S-SW 208 0 min 0,000 mm 0,0 UV-I 0 W/m -10,1 C -6,2 C 0,0 km/h (0 Bft) 0,00 %
03.02.2015 21:00 -6,3 C 75 % 1004,2 hPa 0,0 l/m 0,0 km/h (0 Bft) S 182 0 min 0,000 mm 0,0 UV-I 0 W/m -10,0 C -6,3 C 0,0 km/h (0 Bft) 0,00 %
03.02.2015 21:15 -6,8 C 75 % 1004,3 hPa 0,0 l/m 0,0 km/h (0 Bft) SW 220 0 min 0,000 mm 0,0 UV-I 0 W/m -10,5 C -6,8 C 0,0 km/h (0 Bft) 0,00 %
03.02.2015 21:30 -7,2 C 75 % 1004,6 hPa 0,0 l/m 0,0 km/h (0 Bft) SW 220 0 min 0,000 mm 0,0 UV-I 0 W/m -10,9 C -7,2 C 0,0 km/h (0 Bft) 0,00 %
03.02.2015 21:45 -7,0 C 76 % 1004,6 hPa 0,0 l/m 0,0 km/h (0 Bft) S-SW 202 0 min 0,000 mm 0,0 UV-I 0 W/m -10,5 C -7,0 C 0,0 km/h (0 Bft) 0,00 %
03.02.2015 22:00 -7,1 C 76 % 1004,9 hPa 0,0 l/m 0,0 km/h (0 Bft) S 189 0 min 0,000 mm 0,0 UV-I 0 W/m -10,6 C -7,1 C 0,0 km/h (0 Bft) 0,00 %
03.02.2015 22:15 -7,2 C 76 % 1004,8 hPa 0,0 l/m 0,0 km/h (0 Bft) S 188 0 min 0,000 mm 0,0 UV-I 0 W/m -10,7 C -7,2 C 0,0 km/h (0 Bft) 0,00 %
03.02.2015 22:30 -7,3 C 77 % 1004,8 hPa 0,0 l/m 0,0 km/h (0 Bft) S 188 0 min 0,000 mm 0,0 UV-I 0 W/m -10,6 C -7,3 C 0,0 km/h (0 Bft) 0,00 %
03.02.2015 22:45 -7,3 C 77 % 1004,7 hPa 0,0 l/m 0,0 km/h (0 Bft) S 188 0 min 0,000 mm 0,0 UV-I 0 W/m -10,6 C -7,3 C 0,0 km/h (0 Bft) 0,00 %
03.02.2015 23:00 -7,5 C 77 % 1004,9 hPa 0,0 l/m 0,0 km/h (0 Bft) S 179 0 min 0,000 mm 0,0 UV-I 0 W/m -10,8 C -7,5 C 0,0 km/h (0 Bft) 0,00 %
03.02.2015 23:15 -7,5 C 73 % 1005,0 hPa 0,0 l/m 0,0 km/h (0 Bft) SW 233 0 min 0,000 mm 0,0 UV-I 0 W/m -11,5 C -7,5 C 0,0 km/h (0 Bft) 0,00 %
03.02.2015 23:30 -7,6 C 73 % 1005,2 hPa 0,0 l/m 0,0 km/h (0 Bft) SW 221 0 min 0,000 mm 0,0 UV-I 0 W/m -11,6 C -7,6 C 0,0 km/h (0 Bft) 0,00 %
_ Min-Zeit 23:30 10:00 00:30 - 00:00 - - - - - - 23:30 23:30 00:00 00:00
Minimum _ -7,6 C 50 % 1001,0 hPa - 0,0 km/h (0 Bft) - - - - - - -11,6 C -7,6 C 0,0 km/h (0 Bft) 0,00 %
_ Max-Zeit 10:15 01:00 23:30 12:30 15:00 - - 08:00 00:00 09:30 14:00 00:15 10:15 00:30 00:00
Maximum _ 1,4 C 81 % 1005,2 hPa 0,3 l/m 1,8 km/h
O (1 Bft)
- - 15 min 0,000 mm 2,0 UV-I 420 W/m -4,3 C 1,4 C 4,0 km/h
O (1 Bft)
0,00 %
Durchschnitt _ -3,0 C 68 % 1002,8 hPa #0,3 l/m 0,1 km/h (0 Bft) O - #7:00 h #0,000 mm 1,6 UV-I 233 W/m -8,2 C -3,0 C 0,3 km/h (0 Bft) 0,00 %